Location: Fort Worth, Tx
(32.7431°N, 97.3695°W)
Time: 09:41:57
(UTC-04:00)

A-11 Canister half - Pass Details

Date: 20 August 2024
Orbit: 1524 x 1684 km, 47.3° (Epoch: 13 September)

Event Time Altitude Azimuth Distance (km) Brightness Sun altitude
Rises 02:24:13 0° 291° (WNW) 4,918 11.9 -45.0°
Reaches altitude 10° 02:27:49 10° 300° (WNW) 3,940 11.4 -45.0°
Maximum altitude 02:36:54 35° 4° (N) 2,478 10.3 -45.0°
Drops below altitude 10° 02:45:56 10° 67° (ENE) 3,927 11.3 -44.9°
Sets 02:49:32 0° 76° (ENE) 4,899 11.8 -44.8°
